Погода в Инверелле

Австралия     29°46′22″S   151°06′22″E
темп.,
°C
ветер,
м/с
пор.,
м/с
влажн.,
%
обл.,
%
осадки,
мм/ч
давл.,
гПа
погр.,
м
17 июня, чт
чт1701:00+12ссз499866 1.6 1015510
04:00+9зсз379831 1.8 1014282
07:00+7сз22930 0.0 101722
10:00+10з47640 0.0 1018823
13:00+12з58565 0.0 10151190
16:00+11з47663 0.0 10151079
19:00+6з22840 0.0 101716
22:00+6зсз11869 0.0 101710
18 июня, пт
пт1801:00+5сз119047 0.0 101510
04:00+7ссз1383100 0.0 1014121
07:00+7зсз2784100 0.0 1015319
10:00+7зсз2784100 0.0 1015319
13:00+10з597547 0.3 1012933
16:00+9з5108933 1.1 1012889
19:00+6зюз3119620 0.1 1015440
22:00+5зюз389838 0.2 1015302
19 июня, сб
сб1901:00+5зюз2798100 0.0 1015344
04:00+5зюз269852 0.0 1015241
07:00+5зюз2596100 0.0 1018303
10:00+7юз368668 0.0 1018515
13:00+11ююз4869100 0.0 10151258
16:00+11ююз58717 0.1 10161092
19:00+6ююз27915 0.0 1019195
22:00+5ююз289467 0.0 1020215
20 июня, вс
вс2001:00+6ю36903 0.0 1020150
04:00+5ю26950 0.0 1020156
07:00+5ю39950 0.0 1022232
10:00+12ююв57610 0.0 1021866
13:00+15ююв45485 0.0 10191600
16:00+13ююв48605 0.0 1019584
19:00+7юв39750 0.0 1023175
22:00+7юв312790 0.0 1024299
21 июня, пн
пн2101:00+6юв25860 0.0 1024104
04:00+5юв23881 0.0 102458
07:00+5юв23910 0.0 102649
10:00+12юв22600 0.0 1025445
13:00+15сз01485 0.0 10231401
16:00+14зсз11605 0.0 102323
19:00+8вюв11725 0.0 102510
22:00+6вюв23810 0.0 102756